STARLINK-2056 (47665 NORAD) Tracking and Keplerian Element Data

This shows tracking and keplerian element data for the satellite.

Feedback or suggestion? Click here.




ElementValue
Catalog47665
NameSTARLINK-2056
Epoch Orbit282
Epoch Day60.16668981
Epoch Year2021
RAAN36.834
Inclination53.05
Eccentricity0.0001614
Argument of Perigee98.1686
Mean Anonmoly21.277
Mean Motion15.86638587
Decay Rate0.0005568
L11 47665U 21012AX 21060.16668981 .00055680 00000-0 21608-3 0 9992
L22 47665 53.0500 36.8340 0001614 98.1686 21.2770 15.86638587 2825

Live tracking and technical data element details for STARLINK-2056 (NORAD 47665). STARLINK-2056 can be tracked NOW for your location showing map with azimuth and elevation plus other details from your city location.

Track the satellite on the map from your city or location and see movement details for azimuth, elevation, latitude, longitude, range, height, and movement on the map or in text.







IsCatalogInMostPopularTable: catalog: 47665, numindb: 3
Update: records affected: 1



GetName: 47665 STARLINK-2056

Hit Count: updated at: Mon, 01 Mar 2021 16:27:42 GMT